Weather History for KITH - November, 2010

Change the Weather History Date:

Monday, November 1, 2010

  Actual Average Record
Temperature  
Mean Temperature 33 °F -  
Max Temperature 36 °F 54 °F 71 °F (1950)
Min Temperature 30 °F 36 °F 23 °F (1964)
Degree Days  
Heating Degree Days 32    
Moisture  
Dew Point 26 °F    
Average Humidity 75    
Maximum Humidity 87    
Minimum Humidity 64    
Precipitation  
Precipitation 0.00 in - - ()
Sea Level Pressure  
Sea Level Pressure 30.38 in    
Wind  
Wind Speed 7 mph (NNW)    
Max Wind Speed 12 mph    
Max Gust Speed 17 mph    
Visibility 10 miles    
Events      
Averages and records for this station are not official NWS values.
T = Trace of Precipitation, MM = Missing Value Source: NWS Daily Summary

Daily Weather History Graph

Daily Weather History Graph

Search for Another Location

Airport or City:

Trip Planner

Search our weather history database for the weather conditions in past years. The results will help you decide how hot, cold, wet, or windy it might be!

Date:

Astronomy

Nov. 01, 2010 Rise Set
Actual Time 7:39 AM EDT 5:58 PM EDT
Civil Twilight 7:10 AM EDT 6:28 PM EDT
Nautical Twilight 6:36 AM EDT 7:01 PM EDT
Astronomical Twilight 6:04 AM EDT 7:34 PM EDT
Moon 2:06 AM EDT (11/1) 3:11 PM EDT (11/1)
Length of Visible Light 11h 18m
Length of Day
10h 19m
Waning Crescent, 26% of the Moon is Illuminated
Nov 1
Waning Crescent
Nov 6
New
Nov 13
First Quarter
Nov 21
Full
Nov 28
Last Quarter

Hourly Weather History & Observations

Time (EDT) Temp. Windchill Dew Point Humidity Pressure Visibility Wind Dir Wind Speed Gust Speed Precip Events Conditions
12:18 AM 33.8 °F 28.6 °F 28.4 °F 81% 30.21 in 10.0 mi Variable 5.8 mph - N/A   Overcast
12:45 AM 32.0 °F 27.5 °F 26.6 °F 80% 30.22 in 10.0 mi North 4.6 mph - N/A   Overcast
12:56 AM 32.0 °F 26.4 °F 27.1 °F 82% 30.26 in 10.0 mi North 5.8 mph - N/A   Overcast
1:23 AM 32.0 °F 26.4 °F 28.4 °F 87% 30.22 in 10.0 mi NNW 5.8 mph - N/A   Overcast
1:56 AM 32.0 °F 23.0 °F 27.1 °F 82% 30.26 in 10.0 mi NNW 11.5 mph - N/A   Overcast
2:08 AM 32.0 °F 24.2 °F 26.6 °F 80% 30.23 in 10.0 mi NNW 9.2 mph - N/A   Overcast
2:56 AM 31.1 °F 25.4 °F 26.1 °F 82% 30.29 in 10.0 mi North 5.8 mph - N/A   Overcast
3:56 AM 31.1 °F 26.4 °F 26.1 °F 82% 30.30 in 10.0 mi NNW 4.6 mph - N/A   Overcast
4:56 AM 30.0 °F 22.4 °F 24.1 °F 79% 30.32 in 10.0 mi NNW 8.1 mph - N/A   Overcast
5:56 AM 31.1 °F 23.7 °F 22.1 °F 69% 30.35 in 10.0 mi NNW 8.1 mph - N/A   Overcast
6:12 AM 32.0 °F 23.0 °F 21.2 °F 64% 30.32 in 10.0 mi North 11.5 mph - N/A   Overcast
6:56 AM 32.0 °F 26.4 °F 23.0 °F 69% 30.36 in 10.0 mi NNW 5.8 mph - N/A   Overcast
7:56 AM 32.0 °F 24.2 °F 24.1 °F 73% 30.37 in 10.0 mi NNW 9.2 mph - N/A   Overcast
8:56 AM 32.9 °F 25.9 °F 25.2 °F 73% 30.40 in 10.0 mi NW 8.1 mph - N/A   Overcast
9:18 AM 33.8 °F 26.4 °F 24.8 °F 70% 30.36 in 10.0 mi NW 9.2 mph - N/A   Overcast
9:56 AM 32.9 °F 24.1 °F 25.2 °F 73% 30.41 in 10.0 mi NW 11.5 mph 17.3 mph N/A   Overcast
10:56 AM 34.0 °F 27.2 °F 25.2 °F 70% 30.43 in 10.0 mi NNW 8.1 mph - N/A   Overcast
11:56 AM 34.9 °F 29.0 °F 27.1 °F 73% 30.44 in 10.0 mi NNW 6.9 mph - N/A   Overcast
12:56 PM 34.9 °F 27.7 °F 27.1 °F 73% 30.43 in 10.0 mi NW 9.2 mph - N/A   Overcast
1:56 PM 34.9 °F 29.0 °F 27.1 °F 73% 30.43 in 10.0 mi NW 6.9 mph - N/A   Overcast
2:56 PM 36.0 °F 29.6 °F 27.1 °F 70% 30.44 in 10.0 mi NNW 8.1 mph - N/A   Overcast
3:56 PM 36.0 °F 29.0 °F 27.1 °F 70% 30.44 in 10.0 mi North 9.2 mph - N/A   Overcast
4:56 PM 34.9 °F 27.7 °F 27.1 °F 73% 30.45 in 10.0 mi NNW 9.2 mph - N/A   Overcast
5:56 PM 34.9 °F 30.8 °F 28.0 °F 76% 30.46 in 10.0 mi NW 4.6 mph - N/A   Overcast
6:56 PM 34.9 °F 30.8 °F 27.1 °F 73% 30.47 in 10.0 mi NNW 4.6 mph - N/A   Overcast
7:56 PM 34.9 °F 28.3 °F 25.2 °F 68% 30.49 in 10.0 mi North 8.1 mph - N/A   Overcast
8:56 PM 34.9 °F 32.0 °F 26.1 °F 70% 30.49 in 10.0 mi NNW 3.5 mph - N/A   Overcast
9:56 PM 34.0 °F 29.8 °F 27.1 °F 76% 30.51 in 10.0 mi NNW 4.6 mph - N/A   Overcast
10:56 PM 34.0 °F 31.0 °F 26.1 °F 73% 30.52 in 10.0 mi NW 3.5 mph - N/A   Overcast
11:56 PM 34.0 °F - 27.1 °F 76% 30.52 in 10.0 mi Calm Calm - N/A   Overcast